Starlink 4190

operational
NORAD ID: 53001 Int'l Des: 2022-076 Owner: SPXS Country: US Constellation: starlink
LEOCIRCULAR

Starlink 4190について

説明を読み込み中...

リアルタイム位置

3D地球を読み込み中...

次回通過

高度履歴

Altitude vs Time

uPlot chart will show altitude changes over time

軌道要素

1 53001U 22076R 25260.12197813 -.00010117 00000-0 -61850-3 0 9998
2 53001 53.2170 153.2979 0001603 52.4965 307.6173 15.08836718176644
Epoch: Sep 17, 2025 • Age: 13 hours

現在のステータス

高度 545.4 km
速度 7.60 km/s
衛星直下点 52.41°N, 17.75°E
打ち上げ日 Jul 7, 2022
運用期間 3.1 years
タイプ internet

技術仕様

分類 Payload
質量 297.00 kg
乾燥質量 275.00 kg
総質量 297.00 kg
長さ 0.20 m
直径 2.80 m
スパン 9.00 m
形状 Box + pan
製造者 SPXS
バスタイプ Starlink
フェーズステータス In Orbit
所有者/国 SPXS/US

大規模コンステレーション

Loading constellations...